This demonstration page uses our WeatherBlox Daily Observations layout. Learn more.

39.92423, -83.80882

Hourly Observations for September 25, 2016

Temp ( °F °C ) Dew Point ( °F °C ) Humidity (%) Winds ( mph kmh ) Pressure ( in mb ) Visibility ( mi km ) Precip ( " mm )
12:56 am 00:56 Clear 60 15.6 56 13.3 86 86 ENE 7 11 30.16 1021 10 16.0934 0 0
1:56 am 01:56 Clear 59 15 55 12.8 87 87 ENE 8 13 30.17 1022 10 16.0934 0 0
2:56 am 02:56 Clear 57 13.9 54 12.2 90 90 ENE 6 9 30.16 1022 10 16.0934 0 0
3:56 am 03:56 Clear 57 13.9 54 12.2 90 90 ENE 7 11 30.16 1021 10 16.0934 0 0
4:56 am 04:56 Clear 56 13.3 53 11.7 90 90 E 6 9 30.16 1021 10 16.0934 0 0
5:56 am 05:56 Clear 55 12.8 53 11.7 93 93 E 5 7 30.15 1021 10 16.0934 0 0
6:56 am 06:56 Clear 54 12.2 52 11.1 93 93 ENE 5 7 30.16 1021 10 16.0934 0 0
7:56 am 07:56 Sunny 55 12.8 53 11.7 93 93 ENE 5 7 30.17 1022 10 16.0934 0 0
8:56 am 08:56 Sunny 60 15.6 54 12.2 80 80 E 9 15 30.16 1021 10 16.0934 0 0
9:56 am 09:56 Sunny 66 18.9 57 13.9 73 73 ESE 7 11 30.16 1021 10 16.0934 0 0
10:56 am 10:56 Sunny 70 21.1 58 14.4 66 66 Calm 30.16 1022 10 16.0934 0 0
11:56 am 11:56 Sunny 75 23.9 59 15 58 58 VRB 3 6 30.15 1021 10 16.0934 0 0
12:56 pm 12:56 Sunny 77 25 61 16.1 58 58 E 5 7 30.13 1020 10 16.0934 0 0
1:56 pm 13:56 Sunny 80 26.7 61 16.1 52 52 VRB 3 6 30.11 1020 10 16.0934 0 0
2:56 pm 14:56 Sunny 81 27.2 62 16.7 53 53 SW 6 9 30.09 1019 10 16.0934 0 0
3:56 pm 15:56 Sunny 81 27.2 63 17.2 54 54 Calm 30.07 1018 10 16.0934 0 0
4:56 pm 16:56 Sunny 81 27.2 64 17.8 57 57 W 5 7 30.06 1018 10 16.0934 0 0
5:56 pm 17:56 Sunny 81 27.2 63 17.2 54 54 NW 3 6 30.05 1018 10 16.0934 0 0
6:56 pm 18:56 Sunny 78 25.6 64 17.8 62 62 Calm 30.04 1017 10 16.0934 0 0
7:48 pm 19:48 Hazy 73 23 63 17 69 69 Calm 30.03 1017 1.75 2.816345 0 0
7:56 pm 19:56 Hazy 72 22.2 64 17.8 76 76 Calm 30.04 1017 4 6.43736 0 0
8:56 pm 20:56 Clear 68 20 63 17.2 84 84 ESE 8 13 30.04 1017 10 16.0934 0 0
9:56 pm 21:56 Clear 67 19.4 59 15 76 76 SE 5 7 30.05 1018 10 16.0934 0 0
10:56 pm 22:56 Clear 66 18.9 57 13.9 73 73 SE 6 9 30.04 1017 10 16.0934 0 0
11:56 pm 23:56 Clear 63 17.2 57 13.9 81 81 ESE 5 7 30.03 1017 10 16.0934 0 0

Powered by AerisWeather